Location: Anaheim-Santa Ana-Garden Grove Division
(33.8283°N, 117.8592°W)
Time: 12:30:28
(UTC+00:00)

Daily predictions for brighter satellites

Satellite Brightness Start Highest point End
(mag) Time Altitude Azimuth Time Altitude Azimuth Time Altitude Azimuth
Aureole 2 Rocket 2.6 12:03:29 48° ESE 12:03:39 49° ESE 12:06:15 10° NNE
Cosmos 1461 2.8 12:02:24 10° NNW 12:06:30 85° ENE 12:10:42 10° SSE
Cosmos 1943 Rocket 3.7 12:12:27 17° WNW 12:12:27 17° WNW 12:16:00 10° NNW
Iridium 4 Rocket 3.6 12:12:08 34° WSW 12:13:19 40° W 12:17:30 10° NNW
Sakura Rocket 4.0 12:13:27 29° SW 12:15:26 46° S 12:21:13 10° E
Cosmos 1862 Rocket 3.7 12:13:31 27° SW 12:15:44 52° W 12:20:07 10° N
Cosmos 1340 4.2 12:13:04 10° N 12:16:37 38° E 12:20:09 10° SSE
ASTRO E2 3.4 12:17:07 30° SW 12:18:32 42° SSE 12:22:19 10° E
USA 215 3.5 12:13:15 10° NNE 12:19:35 53° NW 12:23:44 22° WSW
MSX 3.8 12:13:58 10° N 12:19:39 65° WNW 12:25:18 10° SSW
CZ-4B R/B 3.8 12:17:49 10° NNE 12:21:29 73° ESE 12:25:06 10° S
Cosmos 1538 Rocket 4.0 12:16:35 10° SSW 12:21:47 86° ESE 12:26:58 10° NNE
GPS 2-04 Rocket1 3.6 12:29:17 25° WSW 12:30:44 32° SSW 12:34:21 10° SE
Cosmos 1553 Rocket 3.9 12:28:01 10° N 12:34:17 83° W 12:40:25 10° S
ATLAS 3B R/B 4.0 12:31:58 16° WNW 12:34:57 21° NW 12:39:49 10° N
SL-4 R/B 4.3 12:33:41 10° NNW 12:36:16 19° NNE 12:38:57 10° E
Meteor 1-5 Rocket 4.2 12:30:58 10° NNW 12:36:20 61° W 12:41:53 10° S
Okean 1-7 3.2 12:35:54 10° S 12:40:16 77° E 12:44:41 10° N
Cosmos 1315 Rocket 3.3 12:36:32 10° SSW 12:40:25 41° W 12:44:21 10° N
H-2A R/B 3.7 12:38:32 10° NNW 12:41:20 20° WNW 12:42:21 18° W
Timation 2 Rocket 3.9 12:36:25 10° NNW 12:42:27 87° ENE 12:48:25 10° SSE
BREEZE-M DEB (TANK) 4.3 12:40:15 10° NW 12:44:59 86° SW 13:06:56 10° SE
COSMOS 2487 3.3 12:42:17 10° NW 12:45:15 27° W 12:48:12 10° SSW
OAO 2 Rocket 3.6 12:41:18 15° WSW 12:45:17 59° SSE 12:50:08 10° E
Cosmos 1500 3.4 12:44:31 10° NNW 12:48:05 44° W 12:51:39 10° SSW
ALOS 4.2 12:45:44 10° NNE 12:49:57 33° E 12:54:08 10° SSE
Cosmos 1908 Rocket 3.4 12:47:14 10° N 12:51:34 73° W 12:55:53 10° S
Cosmos 1655 Rocket 4.1 12:47:00 10° SSW 12:53:01 52° W 12:59:07 10° N
ISS -1.5 12:53:26 10° SW 12:53:26 10° SW 12:53:41 10° SW
TSX-5 4.4 12:50:39 10° S 12:54:07 49° ESE 12:57:13 10° NE
Okean O Rocket 2.8 12:51:43 10° NNE 12:56:02 47° E 13:00:19 10° S
CZ-2C R/B 2.9 12:52:07 10° N 12:56:39 39° WNW 13:01:19 10° SW
SeaSat 1 4.3 12:57:00 10° NNW 12:59:16 13° NW 13:01:34 10° W
Shenzhou-11 Module 3.8 12:57:22 10° SSW 12:59:39 23° SE 13:01:56 10° E
Cosmos 1812 4.2 12:57:07 10° WSW 12:59:50 18° WNW 13:02:33 10° NNW
OAO 1 Rocket 4.5 12:54:40 10° W 12:59:59 88° N 13:05:20 10° E
Helios 1A Rocket 3.2 12:55:57 10° NNE 13:00:01 75° E 13:04:06 10° S
MOS 1-B 4.4 12:54:34 10° NNE 13:00:23 82° WNW 13:06:10 10° SSW
Atlas Centaur 2 3.2 12:55:09 11° W 13:02:09 58° SSW 13:10:22 10° ESE
Cosmos 1733 Rocket 4.4 12:59:48 10° NW 13:02:54 19° W 13:05:58 10° SW
Lacrosse 5 rocket 1.7 13:00:11 10° NW 13:04:25 52° SW 13:08:49 10° SSE
Hubble Space Telescope 1.7 13:02:00 10° WSW 13:05:47 35° S 13:09:35 10° ESE
Cosmos 44 Rocket 3.7 13:01:19 10° SW 13:06:11 47° WNW 13:10:59 10° NNE
SJ-12 4.0 13:02:37 10° NNE 13:06:42 81° ESE 13:10:44 10° S
Cosmos 1743 4.3 13:04:35 10° N 13:08:19 42° E 13:12:00 10° SSE
CZ-4B DEB 4.2 13:03:20 10° NNE 13:08:53 83° WNW 13:14:22 10° SSW
Lacrosse 5 3.9 13:04:36 10° NNW 13:08:54 27° NE 13:13:11 10° E
BREEZE-M DEB (TANK) 3.7 13:02:09 10° NW 13:09:33 63° NNE 13:12:29 10° ESE
Okean 1 3.3 13:07:31 10° S 13:11:28 89° W 13:15:27 10° N
IDEFIX/ARIANE 42P 4.4 13:12:14 10° NW 13:13:57 12° WNW 13:15:41 10° W
S3M 4.2 13:08:48 10° NNW 13:14:42 49° W 13:20:40 10° SSW
